User: anonymous   Login
Location: Caltech
(34.1382°N, 118.1253°W)
Time: 14:51:13
(UTC-07:00)
Language:

Iridium 14 - Orbit

View from above orbital plane
View from above orbital plane
View from above satellite
View from above satellite

Ground track
Ground track

The orbit data is extracted from the following two-line orbital elements,

1 25777U 99032A   17082.82330360 -.00000025 +00000-0 -15885-4 0  9994
2 25777 086.3922 259.6105 0001827 087.1633 272.9772 14.34212254942362
Epoch (UTC): 23 March 2017 19:45:33
Eccentricity: 0.0001827
inclination: 86.3922°
perigee height: 776 km
apogee height: 779 km
right ascension of ascending node: 259.6105°
argument of perigee: 87.1633°
revolutions per day: 14.34212254
mean anomaly at epoch: 272.9772°
orbit number at epoch: 94236

The dashed part of the orbit path shows where the satellite is in the earth's shadow,  

DLR